Time,TemperatureF,DewpointF,PressureIn,WindDirection,WindDirectionDegrees,WindSpeedMPH,WindSpeedGustMPH,Humidity,HourlyPrecipIn,Conditions,Clouds,dailyrainin,SoftwareType,DateUTC
2013-01-02 00:03:00,18.0,3.0,-100.00,North,350,12.0,14.0,49,-99.99,,,-99.99,,2013-01-02 05:03:00,
2013-01-02 00:12:00,18.0,3.0,-100.00,NNW,345,7.0,12.0,50,-99.99,,,-99.99,,2013-01-02 05:12:00,
2013-01-02 00:22:00,18.0,3.0,-100.00,North,350,7.0,15.0,51,-99.99,,,-99.99,,2013-01-02 05:22:00,
2013-01-02 00:52:00,18.0,3.0,-100.00,NNW,345,6.0,14.0,52,-99.99,,,-99.99,,2013-01-02 05:52:00,
2013-01-02 01:22:00,17.0,4.0,-100.00,NNW,335,2.0,5.0,55,-99.99,,,-99.99,,2013-01-02 06:22:00,
2013-01-02 01:52:00,15.0,4.0,-100.00,North,10,5.0,8.0,61,-99.99,,,-99.99,,2013-01-02 06:52:00,
2013-01-02 02:22:00,11.0,2.0,-100.00,NNE,25,2.0,5.0,65,-99.99,,,-99.99,,2013-01-02 07:22:00,
2013-01-02 02:32:00,11.0,3.0,-100.00,NNE,30,2.0,5.0,69,-99.99,,,-99.99,,2013-01-02 07:32:00,
2013-01-02 03:22:00,10.0,3.0,-100.00,SSW,195,1.0,3.0,74,-99.99,,,-99.99,,2013-01-02 08:22:00,
2013-01-02 03:32:00,9.0,3.0,-100.00,West,280,0.0,2.0,75,-99.99,,,-99.99,,2013-01-02 08:32:00,
2013-01-02 03:42:00,9.0,4.0,-100.00,South,185,2.0,3.0,77,-99.99,,,-99.99,,2013-01-02 08:42:00,
2013-01-02 03:52:00,9.0,3.0,-100.00,ENE,70,2.0,3.0,77,-99.99,,,-99.99,,2013-01-02 08:52:00,
2013-01-02 04:02:00,8.0,2.0,-100.00,SSE,155,1.0,5.0,76,-99.99,,,-99.99,,2013-01-02 09:02:00,
2013-01-02 04:12:00,7.0,2.0,-100.00,WNW,290,1.0,3.0,77,-99.99,,,-99.99,,2013-01-02 09:12:00,
2013-01-02 04:22:00,7.0,2.0,-100.00,NNW,330,2.0,3.0,78,-99.99,,,-99.99,,2013-01-02 09:22:00,
2013-01-02 04:32:00,8.0,3.0,-100.00,SW,220,2.0,3.0,80,-99.99,,,-99.99,,2013-01-02 09:32:00,
2013-01-02 05:02:00,6.0,1.0,-100.00,SE,135,1.0,2.0,81,-99.99,,,-99.99,,2013-01-02 10:02:00,
2013-01-02 05:12:00,5.0,1.0,-100.00,South,175,2.0,6.0,80,-99.99,,,-99.99,,2013-01-02 10:12:00,
2013-01-02 05:22:00,6.0,1.0,-100.00,SW,230,0.0,5.0,81,-99.99,,,-99.99,,2013-01-02 10:22:00,
2013-01-02 06:52:00,5.0,1.0,-100.00,North,350,1.0,5.0,84,-99.99,,,-99.99,,2013-01-02 11:52:00,
2013-01-02 07:03:00,4.0,1.0,-100.00,NNE,25,2.0,5.0,85,-99.99,,,-99.99,,2013-01-02 12:03:00,
2013-01-02 07:12:00,6.0,2.0,-100.00,WNW,300,1.0,5.0,84,-99.99,,,-99.99,,2013-01-02 12:12:00,
2013-01-02 07:22:00,3.0,1.0,-100.00,ESE,110,0.0,2.0,89,-99.99,,,-99.99,,2013-01-02 12:22:00,
2013-01-02 07:33:00,4.0,0.0,-100.00,South,180,1.0,6.0,84,-99.99,,,-99.99,,2013-01-02 12:33:00,
2013-01-02 07:43:00,2.0,-1.0,-100.00,NE,55,1.0,3.0,85,-99.99,,,-99.99,,2013-01-02 12:43:00,
2013-01-02 07:53:00,4.0,0.0,-100.00,East,90,0.0,5.0,86,-99.99,,,-99.99,,2013-01-02 12:53:00,
2013-01-02 08:03:00,5.0,2.0,-100.00,NNW,345,1.0,3.0,86,-99.99,,,-99.99,,2013-01-02 13:03:00,
2013-01-02 08:12:00,5.0,2.0,-100.00,SW,215,1.0,3.0,85,-99.99,,,-99.99,,2013-01-02 13:12:00,
2013-01-02 08:22:00,6.0,2.0,-100.00,West,280,1.0,3.0,86,-99.99,,,-99.99,,2013-01-02 13:22:00,
2013-01-02 08:33:00,8.0,3.0,-100.00,West,280,1.0,5.0,81,-99.99,,,-99.99,,2013-01-02 13:33:00,
2013-01-02 08:43:00,6.0,2.0,-100.00,WSW,245,2.0,3.0,82,-99.99,,,-99.99,,2013-01-02 13:43:00,
2013-01-02 08:52:00,7.0,3.0,-100.00,West,270,1.0,5.0,83,-99.99,,,-99.99,,2013-01-02 13:52:00,
2013-01-02 09:03:00,9.0,5.0,-100.00,SW,230,3.0,5.0,81,-99.99,,,-99.99,,2013-01-02 14:03:00,
2013-01-02 09:12:00,9.0,4.0,-100.00,SW,230,3.0,5.0,79,-99.99,,,-99.99,,2013-01-02 14:12:00,
2013-01-02 09:23:00,10.0,5.0,-100.00,SW,235,3.0,5.0,80,-99.99,,,-99.99,,2013-01-02 14:23:00,
2013-01-02 09:33:00,11.0,6.0,-100.00,SW,230,3.0,6.0,79,-99.99,,,-99.99,,2013-01-02 14:33:00,
2013-01-02 09:43:00,11.0,6.0,-100.00,SW,225,3.0,6.0,79,-99.99,,,-99.99,,2013-01-02 14:43:00,
2013-01-02 09:53:00,13.0,7.0,-100.00,SSW,200,5.0,8.0,77,-99.99,,,-99.99,,2013-01-02 14:53:00,
2013-01-02 10:03:00,13.0,7.0,-100.00,SW,225,3.0,7.0,75,-99.99,,,-99.99,,2013-01-02 15:03:00,
2013-01-02 10:12:00,15.0,8.0,-100.00,SSW,200,7.0,9.0,73,-99.99,,,-99.99,,2013-01-02 15:12:00,
2013-01-02 10:23:00,17.0,9.0,-100.00,South,175,5.0,12.0,70,-99.99,,,-99.99,,2013-01-02 15:23:00,
2013-01-02 10:33:00,17.0,9.0,-100.00,South,175,5.0,7.0,68,-99.99,,,-99.99,,2013-01-02 15:33:00,
2013-01-02 10:43:00,18.0,9.0,-100.00,South,170,5.0,9.0,68,-99.99,,,-99.99,,2013-01-02 15:43:00,
2013-01-02 10:53:00,19.0,10.0,-100.00,South,170,5.0,7.0,68,-99.99,,,-99.99,,2013-01-02 15:53:00,
2013-01-02 12:33:00,25.0,13.0,-100.00,East,95,1.0,5.0,61,-99.99,,,-99.99,,2013-01-02 17:33:00,
2013-01-02 12:43:00,25.0,13.0,-100.00,South,175,3.0,5.0,59,-99.99,,,-99.99,,2013-01-02 17:43:00,
2013-01-02 12:53:00,26.0,13.0,-100.00,South,175,2.0,7.0,59,-99.99,,,-99.99,,2013-01-02 17:53:00,
2013-01-02 13:03:00,26.0,13.0,-100.00,West,270,1.0,5.0,58,-99.99,,,-99.99,,2013-01-02 18:03:00,
2013-01-02 13:13:00,26.0,14.0,-100.00,ESE,120,1.0,3.0,58,-99.99,,,-99.99,,2013-01-02 18:13:00,
2013-01-02 13:23:00,27.0,13.0,-100.00,West,260,1.0,2.0,56,-99.99,,,-99.99,,2013-01-02 18:23:00,
2013-01-02 13:33:00,27.0,12.0,-100.00,WNW,290,3.0,12.0,54,-99.99,,,-99.99,,2013-01-02 18:33:00,
2013-01-02 13:43:00,27.0,12.0,-100.00,North,0,15.0,22.0,52,-99.99,,,-99.99,,2013-01-02 18:43:00,
2013-01-02 13:53:00,27.0,12.0,-100.00,North,0,6.0,22.0,53,-99.99,,,-99.99,,2013-01-02 18:53:00,
2013-01-02 14:03:00,27.0,12.0,-100.00,North,350,8.0,24.0,51,-99.99,,,-99.99,,2013-01-02 19:03:00,
2013-01-02 14:13:00,27.0,12.0,-100.00,North,355,7.0,17.0,52,-99.99,,,-99.99,,2013-01-02 19:13:00,
2013-01-02 14:23:00,28.0,13.0,-100.00,NNW,340,6.0,13.0,53,-99.99,,,-99.99,,2013-01-02 19:23:00,
2013-01-02 14:33:00,27.0,12.0,-100.00,NNW,345,6.0,20.0,52,-99.99,,,-99.99,,2013-01-02 19:33:00,
2013-01-02 14:43:00,27.0,12.0,-100.00,North,10,10.0,16.0,52,-99.99,,,-99.99,,2013-01-02 19:43:00,
2013-01-02 14:52:00,27.0,12.0,-100.00,NNE,15,10.0,16.0,52,-99.99,,,-99.99,,2013-01-02 19:52:00,
2013-01-02 15:03:00,27.0,12.0,-100.00,NNW,335,6.0,13.0,52,-99.99,,,-99.99,,2013-01-02 20:03:00,
2013-01-02 15:12:00,27.0,12.0,-100.00,North,0,8.0,15.0,52,-99.99,,,-99.99,,2013-01-02 20:12:00,
2013-01-02 15:23:00,27.0,12.0,-100.00,NNE,15,7.0,21.0,52,-99.99,,,-99.99,,2013-01-02 20:23:00,
2013-01-02 15:33:00,27.0,12.0,-100.00,North,0,10.0,17.0,52,-99.99,,,-99.99,,2013-01-02 20:33:00,
2013-01-02 15:42:00,28.0,12.0,-100.00,North,0,9.0,16.0,51,-99.99,,,-99.99,,2013-01-02 20:42:00,
2013-01-02 15:53:00,27.0,13.0,-100.00,NNE,30,5.0,16.0,53,-99.99,,,-99.99,,2013-01-02 20:53:00,
2013-01-02 16:03:00,27.0,15.0,-100.00,NNE,15,5.0,8.0,60,-99.99,,,-99.99,,2013-01-02 21:03:00,
2013-01-02 16:13:00,26.0,15.0,-100.00,NNE,25,3.0,10.0,63,-99.99,,,-99.99,,2013-01-02 21:13:00,
2013-01-02 16:23:00,26.0,15.0,-100.00,NNE,25,2.0,9.0,64,-99.99,,,-99.99,,2013-01-02 21:23:00,
2013-01-02 16:33:00,26.0,14.0,-100.00,NE,45,3.0,13.0,62,-99.99,,,-99.99,,2013-01-02 21:33:00,
2013-01-02 16:43:00,26.0,14.0,-100.00,NNE,25,3.0,9.0,61,-99.99,,,-99.99,,2013-01-02 21:43:00,
2013-01-02 16:52:00,26.0,14.0,-100.00,North,0,5.0,8.0,61,-99.99,,,-99.99,,2013-01-02 21:52:00,
2013-01-02 17:03:00,26.0,14.0,-100.00,North,0,5.0,8.0,61,-99.99,,,-99.99,,2013-01-02 22:03:00,
2013-01-02 17:13:00,25.0,14.0,-100.00,North,5,6.0,12.0,62,-99.99,,,-99.99,,2013-01-02 22:13:00,
2013-01-02 17:22:00,25.0,14.0,-100.00,North,5,6.0,12.0,62,-99.99,,,-99.99,,2013-01-02 22:22:00,
2013-01-02 17:32:00,25.0,15.0,-100.00,North,350,3.0,8.0,64,-99.99,,,-99.99,,2013-01-02 22:32:00,
2013-01-02 17:43:00,25.0,15.0,-100.00,North,10,3.0,13.0,65,-99.99,,,-99.99,,2013-01-02 22:43:00,
2013-01-02 17:52:00,24.0,15.0,-100.00,NNE,30,2.0,13.0,66,-99.99,,,-99.99,,2013-01-02 22:52:00,
2013-01-02 18:03:00,24.0,15.0,-100.00,North,10,5.0,7.0,69,-99.99,,,-99.99,,2013-01-02 23:03:00,
2013-01-02 18:13:00,24.0,16.0,-100.00,NE,50,2.0,6.0,72,-99.99,,,-99.99,,2013-01-02 23:13:00,
2013-01-02 18:23:00,23.0,16.0,-100.00,North,355,2.0,5.0,73,-99.99,,,-99.99,,2013-01-02 23:23:00,
2013-01-02 18:33:00,23.0,16.0,-100.00,NNE,25,2.0,5.0,74,-99.99,,,-99.99,,2013-01-02 23:33:00,
2013-01-02 18:43:00,23.0,16.0,-100.00,North,0,5.0,6.0,72,-99.99,,,-99.99,,2013-01-02 23:43:00,
2013-01-02 18:52:00,22.0,15.0,-100.00,ENE,60,1.0,6.0,74,-99.99,,,-99.99,,2013-01-02 23:52:00,
2013-01-02 19:02:00,23.0,15.0,-100.00,North,10,6.0,8.0,73,-99.99,,,-99.99,,2013-01-03 00:02:00,
2013-01-02 20:12:00,19.0,9.0,-100.00,NNE,15,5.0,8.0,64,-99.99,,,-99.99,,2013-01-03 01:12:00,
2013-01-02 20:22:00,20.0,7.0,-100.00,North,5,7.0,13.0,55,-99.99,,,-99.99,,2013-01-03 01:22:00,
2013-01-02 20:33:00,20.0,6.0,-100.00,North,355,6.0,8.0,54,-99.99,,,-99.99,,2013-01-03 01:33:00,
2013-01-02 20:43:00,20.0,6.0,-100.00,North,350,6.0,8.0,54,-99.99,,,-99.99,,2013-01-03 01:43:00,
2013-01-02 20:50:00,18.0,2.0,-100.00,North,0,7.0,10.0,48,-99.99,,,-99.99,,2013-01-03 01:50:00,
2013-01-02 20:52:00,20.0,5.0,-100.00,North,10,5.0,9.0,52,-99.99,,,-99.99,,2013-01-03 01:52:00,
2013-01-02 21:02:00,19.0,4.0,-100.00,North,10,5.0,9.0,50,-99.99,,,-99.99,,2013-01-03 02:02:00,
2013-01-02 21:12:00,19.0,3.0,-100.00,North,10,3.0,9.0,50,-99.99,,,-99.99,,2013-01-03 02:12:00,
2013-01-02 21:23:00,18.0,3.0,-100.00,North,5,7.0,9.0,49,-99.99,,,-99.99,,2013-01-03 02:23:00,
2013-01-02 21:33:00,18.0,2.0,-100.00,North,0,7.0,10.0,48,-99.99,,,-99.99,,2013-01-03 02:33:00,
2013-01-02 21:43:00,18.0,2.0,-100.00,North,0,7.0,10.0,48,-99.99,,,-99.99,,2013-01-03 02:43:00,
2013-01-02 22:03:00,17.0,3.0,-100.00,NNE,30,5.0,12.0,54,-99.99,,,-99.99,,2013-01-03 03:03:00,
2013-01-02 22:12:00,16.0,3.0,-100.00,NNE,25,2.0,9.0,55,-99.99,,,-99.99,,2013-01-03 03:12:00,
2013-01-02 22:22:00,15.0,2.0,-100.00,NNE,25,7.0,13.0,58,-99.99,,,-99.99,,2013-01-03 03:22:00,
2013-01-02 22:52:00,12.0,1.0,-100.00,NE,50,5.0,12.0,61,-99.99,,,-99.99,,2013-01-03 03:52:00,
2013-01-02 23:12:00,11.0,1.0,-100.00,NE,40,5.0,9.0,62,-99.99,,,-99.99,,2013-01-03 04:12:00,
2013-01-02 23:22:00,11.0,0.0,-100.00,NNE,15,5.0,15.0,62,-99.99,,,-99.99,,2013-01-03 04:22:00,